Regional Weather Roundup
Issued by NWS Newport/Morehead, NC

Current Version | Previous Version | Text Only | Print | Product List | Glossary On
Versions: 1 2 3 4 5 6 7 8 9 10 11 12 13 14 15 16 17 18 19 20 21 22 23 24 25 26 27 28 29 30 31 32 33 34 35 36 37 38 39 40 41 42 43 44 45 46 47 48 49 50
000
ASUS42 KMHX 290112
RWRMHX
WEATHER ROUNDUP FOR EASTERN NORTH CAROLINA
NATIONAL WEATHER SERVICE NEWPORT/MOREHEAD CITY NC
900 PM EDT SAT MAR 28 2015

NOTE: "FAIR" INDICATES FEW OR NO CLOUDS BELOW 12,000 FEET
WITH NO SIGNIFICANT WEATHER AND/OR OBSTRUCTIONS TO VISIBILITY

NCZ015>017-031-032-045>047-102-103-290200-
NORTH COAST

CITY           SKY/WX    TMP DP  RH WIND       PRES   REMARKS
EDENTON        CLEAR     36  25  62 N3        30.17R
ELIZABETH CITY PTCLDY    35  21  56 W3        30.16R
KITTY HAWK     CLEAR     38  19  45 NW9G16    30.14R
MANTEO         CLEAR     39  20  47 NW12G18   30.16R

$$

NCZ045>047-081-094-103-104-290200-
CENTRAL COAST

CITY           SKY/WX    TMP DP  RH WIND       PRES   REMARKS
FRISCO         CLEAR     39  25  57 VRB5      30.16R
SWANQUARTER      N/A     36 N/A N/A NW2       30.12R

$$

NCZ095-097-098-100-101-290200-
SOUTHERN COAST

CITY           SKY/WX    TMP DP  RH WIND       PRES   REMARKS
BEAUFORT       CLEAR     42  26  53 N10       30.16R
CEDAR ISLAND     N/A     43 N/A N/A NW16G24   30.18R
JACKSONVILLE   CLEAR     42  23  46 N7        30.16R
PINEY ISLAND   CLEAR    N/A N/A N/A NW10      30.16R
WILMINGTON     CLEAR     44  26  49 N9        30.16R


$$

NCZ011>013-027>030-043-044-078>080-089-090>093-098-290200-
COASTAL PLAIN

CITY           SKY/WX    TMP DP  RH WIND       PRES   REMARKS
AHOSKIE        CLEAR     32  23  68 CALM      30.19R
CLINTON        CLEAR     40  28  63 CALM      30.18R
ELIZABETHTOWN  CLEAR     42  26  53 CALM      30.17R
GOLDSBORO      CLEAR     41  22  48 NW1       30.16R
GREENVILLE     CLEAR     36  21  55 N5        30.19R
HAVELOCK       CLEAR     43  19  38 NW14      30.17R
KENANSVILLE    CLEAR     40  23  52 CALM      30.18R
KINSTON        CLEAR     34  25  69 CALM      30.18R
NEW BERN       CLEAR     40  21  46 NW7       30.18R
RICHLANDS      CLEAR     37  25  60 CALM      30.17R
ROCKY MOUNT    CLEAR     39  14  36 N8        30.19R
WASHINGTON       N/A     38  20  50 CALM      30.18R
WHITEVILLE     CLEAR     44  26  48 CALM      30.16R

$$

AMZ130-135-150-152-154-156-158-170-250-252-270-ANZ085-086-088-633-658-670-290200-
MARINE OBSERVATIONS

STATION/POSITION TIME  TEMP    WIND        PRES    WAVE   SWELL
                       AIR SEA DIR/SP/G            HT/PER HT/PER
                 (UTC) (F)     (DEG/KT/KT) (MB)    (FT/S) (FT/S)
CHESAPEAKE LIGHT 0000   36     360/ 17/ 19 1020.5
64 E VA BEACH    0050   39 57  330/ 19/ 25 1019.7    6/ 6   3/ 9
DUCK             0000   39 42  320/ 11/ 13 1019.3
2 E DUCK         0011      41                N/A     4/ 9   2/11
10 NE DUCK       NOT AVBL
OREGON INLET     0000   40 46  310/ 12/ 18 1019.8
HATTERAS CG      0000   42 54  340/ 15/ 20 1020.2
CAPE LOOKOUT     0100   45     350/ 17/ 20 1020.8
BEAUFORT LAB     0000   46 56  340/  9/ 12 1018.9
27 SE WRIGHTSVLE 0000   49 65  340/ 19/ 23 1020.4
5 SE WRIGHTSVLE  0000   51 56  320/ 17/ 19 1019.3
225 S CAPE HAT   0050   60 68  320/ 19/ 27 1018.4   10/ 9
41 SE CHARLESTON 0050   56 68  310/ 14/ 19 1020.1    4/ 9   2/ 9

$$


USA.gov is the U.S. government's official web portal to all federal, state and local government web resources and services.